| time (UTC) | temp C | wind direction | speed KPH | gust KPH | rain 1hr cm | rain 24hr cm | rain mn cm | humidity % | barometer mb |
| 20260503050028 | 15 | 39 | 0.0 | 3.2 | 0.00 | 0.00 | 0.00 | 46 | 1012.9 |
| 20260503044528 | 15 | 35 | 1.6 | 3.2 | 0.00 | 0.00 | 0.00 | 46 | 1012.8 |
| 20260503043027 | 16 | 352 | 0.0 | 1.6 | 0.00 | 0.00 | 0.00 | 48 | 1012.7 |
| 20260503041532 | 16 | 0 | 0.0 | 3.2 | 0.00 | 0.00 | 0.00 | 48 | 1012.5 |
| 20260503040034 | 17 | 0 | 0.0 | 4.8 | 0.00 | 0.00 | 0.00 | 44 | 1012.4 |
| 20260503034528 | 17 | 63 | 1.6 | 4.8 | 0.00 | 0.00 | 0.00 | 43 | 1012.1 |
| 20260503033030 | 18 | 51 | 1.6 | 6.4 | 0.00 | 0.00 | 0.00 | 42 | 1011.9 |
| 20260503031532 | 18 | 35 | 3.2 | 6.4 | 0.00 | 0.00 | 0.00 | 43 | 1011.8 |
| 20260503030035 | 19 | 22 | 1.6 | 4.8 | 0.00 | 0.00 | 0.00 | 42 | 1011.7 |
| 20260503024535 | 21 | 19 | 0.0 | 3.2 | 0.00 | 0.00 | 0.00 | 40 | 1011.6 |
| 20260503023028 | 22 | 0 | 0.0 | 4.8 | 0.00 | 0.00 | 0.00 | 34 | 1011.6 |
| 20260503021532 | 23 | 0 | 0.0 | 3.2 | 0.00 | 0.00 | 0.00 | 33 | 1011.5 |
| 20260503020027 | 24 | 337 | 1.6 | 3.2 | 0.00 | 0.00 | 0.00 | 34 | 1011.7 |
| 20260503014527 | 25 | 0 | 0.0 | 3.2 | 0.00 | 0.00 | 0.00 | 34 | 1011.8 |
| 20260503013034 | 25 | 271 | 1.6 | 6.4 | 0.00 | 0.00 | 0.00 | 31 | 1011.8 |
| 20260503011528 | 25 | 277 | 1.6 | 9.7 | 0.00 | 0.00 | 0.00 | 32 | 1011.8 |
| 20260503010031 | 25 | 260 | 3.2 | 6.4 | 0.00 | 0.00 | 0.00 | 29 | 1012.0 |
| 20260503004533 | 25 | 338 | 1.6 | 4.8 | 0.00 | 0.00 | 0.00 | 22 | 1012.0 |
| 20260503003036 | 26 | 346 | 1.6 | 8.0 | 0.00 | 0.00 | 0.00 | 24 | 1012.1 |
| 20260503001529 | 26 | 33 | 0.0 | 8.0 | 0.00 | 0.00 | 0.00 | 23 | 1012.2 |
| 20260503000028 | 26 | 0 | 0.0 | 6.4 | 0.00 | 0.00 | 0.00 | 21 | 1012.2 |
| 20260502234533 | 26 | 17 | 1.6 | 8.0 | 0.00 | 0.00 | 0.00 | 24 | 1012.3 |
| 20260502233027 | 26 | 332 | 3.2 | 6.4 | 0.00 | 0.00 | 0.00 | 24 | 1012.5 |
| 20260502231530 | 26 | 0 | 1.6 | 12.9 | 0.00 | 0.00 | 0.00 | 21 | 1012.6 |
| 20260502230034 | 26 | 344 | 3.2 | 8.0 | 0.00 | 0.00 | 0.00 | 26 | 1012.9 |
| 20260502224530 | 26 | 99 | 1.6 | 6.4 | 0.00 | 0.00 | 0.00 | 25 | 1013.2 |
| 20260502223028 | 26 | 37 | 1.6 | 8.0 | 0.00 | 0.00 | 0.00 | 24 | 1013.4 |
| 20260502221528 | 25 | 82 | 1.6 | 9.7 | 0.00 | 0.00 | 0.00 | 25 | 1013.6 |
| 20260502220027 | 25 | 106 | 1.6 | 6.4 | 0.00 | 0.00 | 0.00 | 24 | 1013.9 |
| 20260502214529 | 25 | 277 | 4.8 | 11.3 | 0.00 | 0.00 | 0.00 | 26 | 1014.1 |
| 20260502213038 | 25 | 0 | 1.6 | 4.8 | 0.00 | 0.00 | 0.00 | 26 | 1014.4 |
| 20260502211532 | 25 | 213 | 1.6 | 8.0 | 0.00 | 0.00 | 0.00 | 27 | 1014.5 |
| 20260502210032 | 25 | 254 | 1.6 | 9.7 | 0.00 | 0.00 | 0.00 | 26 | 1014.7 |
| 20260502204529 | 25 | 0 | 1.6 | 6.4 | 0.00 | 0.00 | 0.00 | 27 | 1014.9 |
| 20260502203030 | 24 | 0 | 1.6 | 9.7 | 0.00 | 0.00 | 0.00 | 26 | 1015.0 |
| 20260502201536 | 23 | 103 | 1.6 | 11.3 | 0.00 | 0.00 | 0.00 | 29 | 1015.2 |
| 20260502200027 | 23 | 222 | 1.6 | 11.3 | 0.00 | 0.00 | 0.00 | 28 | 1015.5 |
| 20260502194530 | 23 | 144 | 3.2 | 9.7 | 0.00 | 0.00 | 0.00 | 33 | 1015.5 |
| 20260502193029 | 22 | 270 | 3.2 | 12.9 | 0.00 | 0.00 | 0.00 | 31 | 1015.7 |
| 20260502191535 | 22 | 157 | 3.2 | 11.3 | 0.00 | 0.00 | 0.00 | 35 | 1015.9 |
| 20260502190028 | 22 | 263 | 1.6 | 12.9 | 0.00 | 0.00 | 0.00 | 41 | 1016.0 |
| 20260502184535 | 21 | 261 | 3.2 | 11.3 | 0.00 | 0.00 | 0.00 | 41 | 1016.1 |
| 20260502183030 | 21 | 0 | 1.6 | 8.0 | 0.00 | 0.00 | 0.00 | 40 | 1016.2 |
| 20260502181533 | 21 | 265 | 1.6 | 8.0 | 0.00 | 0.00 | 0.00 | 39 | 1016.6 |
| 20260502163030 | 16 | 0 | 0.0 | 3.2 | 0.00 | 0.00 | 0.00 | 53 | 1017.2 |
| 20260502161531 | 15 | 0 | 0.0 | 4.8 | 0.00 | 0.00 | 0.00 | 58 | 1017.2 |
| 20260502151529 | 12 | 0 | 0.0 | 4.8 | 0.00 | 0.00 | 0.00 | 65 | 1017.2 |
| 20260502123027 | 8 | 0 | 0.0 | 3.2 | 0.00 | 0.00 | 0.00 | 67 | 1016.2 |
| 20260502121533 | 9 | 0 | 0.0 | 3.2 | 0.00 | 0.00 | 0.00 | 65 | 1016.2 |
| 20260502114529 | 10 | 0 | 0.0 | 3.2 | 0.00 | 0.00 | 0.00 | 62 | 1016.2 |
| 20260502113030 | 10 | 317 | 0.0 | 3.2 | 0.00 | 0.00 | 0.00 | 61 | 1016.2 |
| 20260502111529 | 10 | 0 | 0.0 | 3.2 | 0.00 | 0.00 | 0.00 | 60 | 1016.2 |
| 20260502110032 | 10 | 355 | 1.6 | 3.2 | 0.00 | 0.00 | 0.00 | 61 | 1016.1 |
| 20260502104535 | 11 | 0 | 0.0 | 3.2 | 0.00 | 0.00 | 0.00 | 60 | 1016.2 |
| 20260502103030 | 11 | 10 | 1.6 | 4.8 | 0.00 | 0.00 | 0.00 | 59 | 1016.1 |
| 20260502101530 | 11 | 9 | 1.6 | 4.8 | 0.00 | 0.00 | 0.00 | 57 | 1016.2 |
| 20260502091531 | 12 | 0 | 0.0 | 4.8 | 0.00 | 0.00 | 0.00 | 54 | 1016.0 |
| 20260502071530 | 13 | 0 | 0.0 | 4.8 | 0.00 | 0.00 | 0.00 | 51 | 1016.1 |
| 20260502070050 | 13 | 286 | 1.6 | 4.8 | 0.00 | 0.00 | 0.00 | 50 | 1016.1 |
| 20260502064531 | 13 | 0 | 0.0 | 6.4 | 0.00 | 0.00 | 0.00 | 51 | 1016.0 |
| 20260502063032 | 13 | 0 | 3.2 | 8.0 | 0.00 | 0.00 | 0.00 | 51 | 1015.9 |
| 20260502061530 | 13 | 176 | 0.0 | 4.8 | 0.00 | 0.00 | 0.00 | 50 | 1015.8 |
| 20260502060037 | 13 | 0 | 0.0 | 3.2 | 0.00 | 0.00 | 0.00 | 51 | 1016.0 |
| 20260502054540 | 13 | 0 | 0.0 | 3.2 | 0.00 | 0.00 | 0.00 | 49 | 1016.0 |
| 20260502053035 | 14 | 261 | 0.0 | 3.2 | 0.00 | 0.00 | 0.00 | 47 | 1016.1 |
| 20260502051528 | 15 | 0 | 0.0 | 3.2 | 0.00 | 0.00 | 0.00 | 46 | 1016.0 |